Kissimmee, FL

9:25 PM EST on November 16, 2019 (GMT -0500)
Kissimmee Municipal

Weather History for KISM - August, 2019

Change the Weather History Date:

Friday, August 9, 2019

  Actual Average Record
Temperature  
Mean Temperature 83 °F -  
Max Temperature 93 °F 91 °F 99 °F (1963)
Min Temperature 75 °F 72 °F 68 °F (1972)
Cooling Degree Days 18    
Growing Degree Days 33 (Base 50)    
Moisture  
Dew Point 76 °F    
Average Humidity 85    
Maximum Humidity 100    
Minimum Humidity 55    
Precipitation  
Precipitation 0.00 in - - ()
Sea Level Pressure  
Sea Level Pressure 29.99 in    
Wind  
Wind Speed 5 mph (WSW)    
Max Wind Speed 21 mph    
Max Gust Speed 31 mph    
Visibility 9 miles    
Events Rain , Thunderstorm    
Averages and records for this station are not official NWS values.
T = Trace of Precipitation, MM = Missing Value Source: NWS Daily Summary

Daily Weather History Graph

Daily Weather History Graph

Search for Another Location

Airport or City:

Astronomy

Aug. 09, 2019 Rise Set
Actual Time 6:52 AM EDT 8:10 PM EDT
Civil Twilight 6:27 AM EDT 8:34 PM EDT
Nautical Twilight 5:57 AM EDT 9:04 PM EDT
Astronomical Twilight 5:26 AM EDT 9:35 PM EDT
Moon 3:44 PM EDT (8/9) 1:51 AM EDT (8/9)
Length of Visible Light 14h 07m
Length of Day
13h 17m
Waxing Gibbous, 70% of the Moon is Illuminated
Aug 9
Waxing Gibbous
Aug 15
Full
Aug 23
Last Quarter
Aug 30
New
Sep 5
First Quarter

Hourly Weather History & Observations

Time (EDT) Temp. Heat Index Dew Point Humidity Pressure Visibility Wind Dir Wind Speed Gust Speed Precip Events Conditions
12:56 AM 78.1 °F - 75.0 °F 90% 30.01 in 10.0 mi Calm Calm - N/A   Clear
1:56 AM 78.1 °F - 75.9 °F 93% 30.00 in 10.0 mi SSW 3.5 mph - N/A   Clear
2:56 AM 78.1 °F - 75.9 °F 93% 29.99 in 10.0 mi South 3.5 mph - N/A   Clear
3:56 AM 77.0 °F - 75.9 °F 96% 29.97 in 10.0 mi Calm Calm - N/A   Clear
4:56 AM 77.0 °F - 75.9 °F 96% 29.95 in 10.0 mi Calm Calm - N/A   Clear
5:56 AM 77.0 °F - 75.9 °F 96% 29.96 in 10.0 mi Calm Calm - N/A   Clear
6:56 AM 75.9 °F - 75.9 °F 100% 29.98 in 10.0 mi Calm Calm - N/A   Clear
7:56 AM 79.0 °F - 77.0 °F 94% 30.00 in 10.0 mi SW 3.5 mph - N/A   Clear
8:56 AM 82.9 °F 92.8 °F 78.1 °F 85% 30.01 in 10.0 mi West 6.9 mph - N/A   Clear
9:56 AM 86.0 °F 98.3 °F 78.1 °F 77% 30.02 in 10.0 mi West 8.1 mph - N/A   Mostly Cloudy
10:56 AM 89.1 °F 101.4 °F 77.0 °F 67% 30.02 in 10.0 mi NW 9.2 mph - N/A   Mostly Cloudy
11:56 AM 89.1 °F 100.2 °F 75.9 °F 65% 30.01 in 10.0 mi West 8.1 mph - N/A   Mostly Cloudy
12:56 PM 91.9 °F 103.9 °F 75.9 °F 59% 30.00 in 10.0 mi West 6.9 mph - N/A   Mostly Cloudy
1:56 PM 91.9 °F 105.9 °F 77.0 °F 62% 29.98 in 10.0 mi WSW 10.4 mph - N/A   Mostly Cloudy
2:24 PM 91.4 °F 100.1 °F 73.4 °F 55% 29.98 in 10.0 mi WSW 8.1 mph 16.1 mph N/A Thunderstorm Mostly Cloudy
2:34 PM 84.2 °F 96.1 °F 78.8 °F 84% 29.98 in 7.0 mi North 13.8 mph 21.9 mph N/A Rain , Thunderstorm Heavy Rain
2:56 PM 82.0 °F 90.2 °F 77.0 °F 85% 29.99 in 10.0 mi SW 5.8 mph - N/A Thunderstorm Mostly Cloudy
3:17 PM 84.2 °F 94.1 °F 77.0 °F 79% 29.96 in 10.0 mi West 6.9 mph - N/A Rain Light Rain
3:56 PM 89.1 °F 103.2 °F 78.1 °F 70% 29.96 in 10.0 mi WSW 10.4 mph - N/A   Scattered Clouds
4:56 PM 89.1 °F 101.4 °F 77.0 °F 67% 29.96 in 10.0 mi West 4.6 mph - N/A   Scattered Clouds
5:33 PM 87.8 °F 102.5 °F 78.8 °F 75% 29.96 in 10.0 mi West 20.7 mph 25.3 mph N/A Thunderstorm Scattered Clouds
5:56 PM 78.1 °F - 75.9 °F 93% 29.99 in 1.8 mi WSW 16.1 mph 31.1 mph N/A Rain , Thunderstorm Heavy Thunderstorms and Rain
5:59 PM 77.0 °F - 75.2 °F 94% 29.98 in 2.0 mi SW 13.8 mph - N/A Rain , Thunderstorm Heavy Thunderstorms and Rain
6:09 PM 77.0 °F - 75.2 °F 94% 29.97 in 4.0 mi WSW 5.8 mph - N/A Rain , Thunderstorm Heavy Thunderstorms and Rain
6:17 PM 77.0 °F - 75.2 °F 94% 29.97 in 3.0 mi SW 5.8 mph - N/A Rain , Thunderstorm Heavy Thunderstorms and Rain
6:28 PM 78.8 °F - 75.2 °F 89% 29.97 in 6.0 mi South 4.6 mph - N/A Rain Heavy Rain
6:56 PM 77.0 °F - 75.9 °F 96% 29.98 in 10.0 mi SW 5.8 mph - N/A Rain Light Rain
7:56 PM 78.1 °F - 75.0 °F 90% 29.98 in 10.0 mi Calm Calm - N/A   Mostly Cloudy
8:56 PM 77.0 °F - 75.9 °F 96% 29.99 in 10.0 mi SW 3.5 mph - N/A   Clear
9:56 PM 77.0 °F - 75.9 °F 96% 30.01 in 10.0 mi WSW 4.6 mph - N/A   Clear
10:56 PM 78.1 °F - 77.0 °F 96% 30.01 in 10.0 mi Calm Calm - N/A   Clear
11:56 PM 78.1 °F - 77.0 °F 96% 30.01 in 10.0 mi South 3.5 mph - N/A   Clear